Weather History for Kaneohe MCBH, HI

Change the Weather History Date:

Saturday, August 16, 2014

  Actual Average Record
Temperature  
Mean Temperature 80 °F -  
Max Temperature 84 °F 81 °F 89 °F (2013)
Min Temperature 75 °F 73 °F 69 °F (2010)
Cooling Degree Days 14    
Growing Degree Days 30 (Base 50)    
Moisture  
Dew Point 69 °F    
Average Humidity 69    
Maximum Humidity 84    
Minimum Humidity 60    
Precipitation  
Precipitation 0.02 in - - ()
Sea Level Pressure  
Sea Level Pressure 30.00 in    
Wind  
Wind Speed 10 mph (ENE)    
Max Wind Speed 14 mph    
Max Gust Speed 22 mph    
Visibility 8 miles    
Events      
Averages and records for this station are not official NWS values.
T = Trace of Precipitation, MM = Missing Value Source: NWS Daily Summary

Daily Weather History Graph

Daily Weather History Graph

Search for Another Location

Airport:

Trip Planner

Search our weather history database for the weather conditions in past years. The results will help you decide how hot, cold, wet, or windy it might be!

Date:

Astronomy

Aug. 16, 2014 Rise Set
Actual Time 6:09 AM HST 7:00 PM HST
Civil Twilight 5:46 AM HST 7:23 PM HST
Nautical Twilight 5:19 AM HST 7:50 PM HST
Astronomical Twilight 4:51 AM HST 8:18 PM HST
Moon 11:48 PM HST (8/16) 12:12 PM HST (8/16)
Length of Visible Light 13h 36m
Length of Day
12h 50m
Waning Gibbous, 56% of the Moon is Illuminated
Aug 16
Waning Gibbous
Aug 17
Last Quarter
Aug 25
New
Sep 2
First Quarter
Sep 8
Full

Hourly Weather History & Observations

Time (HST) Temp. Heat Index Dew Point Humidity Pressure Visibility Wind Dir Wind Speed Gust Speed Precip Events Conditions
12:57 AM - - - N/A% 29.99 in 10.0 mi East 6.9 mph - N/A   Partly Cloudy
1:57 AM - - - N/A% 29.98 in 9.0 mi ENE 8.1 mph 17.3 mph N/A   Partly Cloudy
2:22 AM - - - N/A% 29.99 in - East 11.5 mph 21.9 mph 0.01 in   Mostly Cloudy
2:33 AM - - - N/A% 29.99 in 2.5 mi East 6.9 mph 16.1 mph 0.02 in   Overcast
2:40 AM - - - N/A% 29.99 in 6.2 mi ENE 11.5 mph 19.6 mph 0.02 in   Overcast
2:57 AM - - - N/A% 29.97 in 10.0 mi East 10.4 mph 16.1 mph 0.02 in   Overcast
3:57 AM - - - N/A% 29.97 in 8.0 mi ENE 11.5 mph - N/A   Overcast
4:57 AM 75.2 °F - 69.1 °F 81% 29.97 in 9.0 mi East 10.4 mph 21.9 mph N/A   Overcast
5:57 AM 75.2 °F - 68.0 °F 78% 29.98 in 9.0 mi East 10.4 mph 18.4 mph N/A   Overcast
6:57 AM 75.2 °F - 68.0 °F 78% 29.99 in 7.0 mi ENE 9.2 mph - N/A   Overcast
7:57 AM 77.0 °F - 68.0 °F 74% 30.00 in 7.0 mi East 13.8 mph 20.7 mph N/A   Mostly Cloudy
8:57 AM 78.8 °F - 68.0 °F 69% 30.01 in 7.0 mi ENE 11.5 mph - N/A   Scattered Clouds
9:57 AM 80.6 °F 83.6 °F 69.1 °F 68% 30.02 in 7.0 mi ENE 11.5 mph - N/A   Mostly Cloudy
10:11 AM 82.4 °F 85.4 °F 68.0 °F 62% 30.03 in 6.2 mi ENE 11.5 mph 18.4 mph N/A   Mostly Cloudy
10:57 AM 82.4 °F 85.4 °F 68.0 °F 62% 30.02 in 7.0 mi ENE 11.5 mph - N/A   Mostly Cloudy
11:22 AM 82.4 °F 86.3 °F 69.8 °F 66% 30.03 in 6.2 mi ENE 12.7 mph 19.6 mph N/A   Mostly Cloudy
11:31 AM 82.4 °F 86.3 °F 69.8 °F 66% 30.03 in 6.2 mi ENE 12.7 mph 19.6 mph N/A   Mostly Cloudy
11:57 AM 82.4 °F 85.8 °F 69.1 °F 64% 30.01 in 7.0 mi ENE 11.5 mph - N/A   Mostly Cloudy
12:57 PM 84.2 °F 87.9 °F 69.1 °F 60% 30.00 in 7.0 mi ENE 12.7 mph 18.4 mph N/A   Mostly Cloudy
1:57 PM 84.2 °F 87.9 °F 69.1 °F 60% 29.99 in 8.0 mi ENE 10.4 mph 18.4 mph N/A   Clear
2:57 PM 84.2 °F 87.9 °F 69.1 °F 60% 29.98 in 7.0 mi East 9.2 mph 17.3 mph N/A   Partly Cloudy
3:57 PM 82.4 °F 86.3 °F 70.0 °F 66% 29.96 in 7.0 mi ENE 11.5 mph - N/A   Partly Cloudy
4:57 PM 82.4 °F 85.8 °F 69.1 °F 64% 29.97 in 8.0 mi ENE 10.4 mph - N/A   Clear
5:57 PM 82.4 °F 85.8 °F 69.1 °F 64% 29.98 in 8.0 mi ENE 9.2 mph - N/A   Partly Cloudy
6:57 PM 80.6 °F 83.6 °F 69.1 °F 68% 29.99 in 8.0 mi ENE 12.7 mph 18.4 mph N/A   Partly Cloudy
7:57 PM 78.8 °F - 68.0 °F 69% 30.00 in 9.0 mi ENE 9.2 mph - N/A   Clear
8:57 PM 77.0 °F - 69.1 °F 76% 30.02 in 9.0 mi East 9.2 mph - N/A   Partly Cloudy
9:57 PM 77.0 °F - 69.1 °F 76% 30.04 in 9.0 mi East 8.1 mph - N/A   Partly Cloudy
10:57 PM 77.0 °F - 69.1 °F 76% 30.04 in 9.0 mi ENE 9.2 mph - N/A   Partly Cloudy
11:57 PM 75.2 °F - 70.0 °F 84% 30.03 in 9.0 mi East 8.1 mph - N/A   Mostly Cloudy